Powrót do katalogu

LKW-3

AktywnyNaukaSSO
NORAD 43146·PAYLOAD·🇨🇳 China

Wystrzelony Jan 13, 2018 z Jiuquan Satellite Launch Center

Loading…

Następne Przeloty (najbliższe 24 godziny)

TLE

ŚwieżeSource: Space-Track

Epoka: Sep 14, 2026, 15:04 UTC

1 43146U 18006A   26257.62792116  .00005696  00000-0  16097-3 0  9991
2 43146  97.6707  61.8602 0003049  12.6348 347.4971 15.36772068482441

Śledź LKW-3 w czasie rzeczywistym z AllMySat

Download on the App Store